Other Public Products
Issued by NWS Charleston, SC

Current Version | Previous Version | Graphics & Text | Print | Product List | Glossary On
Versions: 1 2 3 4 5 6 7 8 9 10 11 12 13 14 15 16 17 18 19 20 21 22 23 24 25 26 27 28 29 30 31 32 33 34 35 36 37 38 39 40 41 42 43 44 45 46 47 48 49 50
831
FPUS82 KCHS 172212
OPUCHS

TEST...KCHS/KSAV Gateway Observations...TEST
National Weather Service Charleston SC
500 PM EST WED JAN 17 2018

NOTE: "fair" indicates few or no clouds below 12,000 feet with no
significant weather and/or obstructions to visibility.

SCZ050-WAZ558-NCZ071-TXZ119-213-PAZ071-DCZ001-FLZ074-172-MI076-
NYZ176-178-MAZ016-IL014-TNZ027-NJZ106-GAZ044-MD014-172300-

...Gateway Observations for Charleston International...

CITY           SKY/WX    TMP DP  RH WIND       PRES   REMARKS
Chas Airport   CLOUDY    41  36  82 NW13G28   30.17R
Seattle        CLOUDY    56  39  53 SE10      29.74F
Charlotte      FLURRIES  28  23  81 N16G22    30.24R WCI  16
Dallas DFW     SUNNY     35   1  23 S3        30.62F
Dallas Love    SUNNY     35   2  24 CALM      30.64F
Philladelphia  CLOUDY    26   9  48 NW16G26   30.25S WCI  14
Wash National  MOCLDY    26   8  46 N20       30.33S WCI  12
Baltimore      MOCLDY    24   7  48 NW12      30.30S WCI  13
Miami          CLOUDY    70  52  52 NW7       30.17R
Detroit        FAIR      20  13  74 S15       30.33F WCI   6
Newark         CLOUDY    29  21  72 NW15G21   30.19F WCI  18
Laguardia      CLOUDY    31  23  72 NW14      30.17F WCI  21
J F K          CLOUDY    32  26  78 NW15      30.17F WCI  22
Boston Logan   LGT SNOW  33  31  92 N7        30.11F FOG     WCI  27
Ft. Lauderdale CLOUDY    67  50  54 NW10      30.16R
Chicago O`Hare FAIR      20   8  60 SW17      30.37F WCI   5
Chicago Midway FAIR      20   9  62 SW16      30.40F WCI   6
Houston Bush   FAIR      38  14  37 NW5       30.63F WCI  34
Houston Hobby  FAIR      37  14  38 N10       30.63F WCI  30
Nashville      FAIR      21   9  59 N8        30.62S WCI  11
Atlanta        FAIR      25   9  50 NW21G33   30.36R WCI  11

$$

GAZ044-118-TXZ119-213-NCZ071-DCZ001-MDZ014-506-PAZ021-071-NJZ106-
NYZ176-178-MAZ106-OHZ011-021-055-MIZ076-KYZ091-ILZ014-INZ047-
MNZ060-ONZ431-172300-

...Gateway Observations for Savannah International...

CITY           SKY/WX    TMP DP  RH WIND       PRES   REMARKS
Savannah Arpt  FAIR      43  25  49 NW16      30.23R
Atlanta        FAIR      25   9  50 NW21G33   30.36R WCI  11
Charlotte      FLURRIES  28  23  81 N16G22    30.24R WCI  16
Dallas DFW     SUNNY     35   1  23 S3        30.62F
Houston Bush   FAIR      38  14  37 NW5       30.63F WCI  34
Wash National  MOCLDY    26   8  46 N20       30.33S WCI  12
Wash Dulles    FAIR      23   7  50 N13       30.32F WCI  11
Baltimore      MOCLDY    24   7  48 NW12      30.30S WCI  13
Philadelphia   CLOUDY    26   9  48 NW16G26   30.25S WCI  14
Newark         CLOUDY    29  21  72 NW15G21   30.19F WCI  18
Laguardia      CLOUDY    31  23  72 NW14      30.17F WCI  21
J F K          CLOUDY    32  26  78 NW15      30.17F WCI  22
Boston         LGT SNOW  33  31  92 N7        30.11F FOG     WCI  27
Pittsburg      MOCLDY    12   5  73 W7        30.37S WCI   1
Akron          FAIR      11   3  70 SW10      30.38F WCI  -3
Cleveland      FAIR      19   9  65 SW12      30.40F WCI   7
Cincinnati     FAIR      18  11  74 SW7       30.50S WCI   9
Columbus       FAIR      10   5  78 SW6       30.49S WCI   1
Detroit        FAIR      20  13  74 S15       30.33F WCI   6
Chicago O`Hare FAIR      20   8  60 SW17      30.37F WCI   5
Minneapolis    FAIR      27  13  55 SW14      30.12F WCI  16
Indianapolis   FAIR      18   9  68 W12       30.52R WCI   5
Toronto Canada PTCLDY    19   7  58 SW15G22   30.21F WCI   5

$$




USA.gov is the U.S. government's official web portal to all federal, state and local government web resources and services.